Location: *
(52.2090°N, 4.1550°W)
Time: 04:48:30
(UTC+00:00)

Cosmos 1500 Rocket - Pass Details

Date: 19 October 2019
Orbit: 603 x 631 km, 82.5° (Epoch: 14 November)

Event Time Altitude Azimuth Distance (km) Brightness Sun altitude
Rises 21:30:17 0° 342° (NNW) 2,939 7.7 -38.0°
Reaches altitude 10° 21:32:41 10° 333° (NNW) 2,025 6.8 -38.3°
Enters shadow 21:33:14 13° 330° (NNW) 1,827 6.6 -38.3°
